• Processing (Info)

  • MPEC 2022-R14 : 2022 QT33

    The following Minor Planet Electronic Circular may be linked-to from your own Web pages, but must not otherwise be redistributed electronically.

    A form allowing access to any MPEC is at the bottom of this page.


    Read MPEC 2022-R13 Read MPEC 2022-R15


    M.P.E.C. 2022-R14                             Issued 2022 September 1, 23:11 UT
    
         The Minor Planet Electronic Circulars contain information on unusual
             minor planets and routine data on comets.  They are published
        on behalf of Division F of the International Astronomical Union by the
              Minor Planet Center, Smithsonian Astrophysical Observatory,
                              Cambridge, MA 02138, U.S.A.
    
                 Prepared using the Tamkin Foundation Computer Network
    
                                  MPC@CFA.HARVARD.EDU
                URL https://www.minorplanetcenter.net/    ISSN 1523-6714
    
                                    2022 QT33                                
    
    
    Observations:
         K22Q33T* C2022 08 29.40565522 10 12.618-16 51 10.15         21.50wUER014F51
         K22Q33T  C2022 08 29.41810122 10 17.979-16 51 51.12         21.36wUER014F51
         K22Q33T  C2022 08 29.44264422 10 28.599-16 53 10.89         21.35wUER014F51
         K22Q33T  C2022 08 29.49830122 10 52.818-16 56 10.13         20.94GVER014F51
         K22Q33T  C2022 08 29.49897022 10 53.099-16 56 11.89         20.92GVER014F51
         K22Q33T |C2022 08 30.05598 22 15 16.11 -17 25 14.0          21.5 VuER014807
         K22Q33T |C2022 08 30.06264 22 15 19.13 -17 25 35.9          21.6 VuER014807
         K22Q33T |C2022 08 30.07584 22 15 25.01 -17 26 18.9          21.5 VuER014807
         K22Q33T KC2022 08 30.26678122 16 52.126-17 37 41.45         20.92GVER014V06
         K22Q33T KC2022 08 30.26802122 16 52.680-17 37 45.19         21.28GVER014V06
         K22Q33T KC2022 08 30.26926422 16 53.231-17 37 49.01         20.86GVER014V06
         K22Q33T ^C2022 08 30.37542722 17 43.409-17 43 16.98         21.26GVER014568
         K22Q33T ^C2022 08 30.37640222 17 43.835-17 43 20.10         21.16GVER014568
         K22Q33T ^C2022 08 30.37738022 17 44.266-17 43 23.26         21.14GVER014568
         K22Q33T  C2022 09 01.40691122 33 44.045-19 28 01.99         21.39GVER014F51
         K22Q33T  C2022 09 01.40756222 33 44.324-19 28 03.82         21.13GVER014F51
    
    Observer details:
    568 Mauna Kea.  Observers R. Wainscoat, L. Wells, E. Bertin.  Measurers R.
        Weryk, R. Wainscoat.  3.6-m Canada-France-Hawaii Telescope + CCD.
    807 Cerro Tololo Observatory, La Serena.  Observers T. Linder, R. Holmes, L.
        Horn.  0.61-m f/6.5 Dall-Kirkham Astrograph + CCD.
    F51 Pan-STARRS 1, Haleakala.  Observers J. Bulger, T. Lowe, A. Schultz, I.
        Smith, K. Chambers.  Measurers K. Chambers, S. Chastel, T. de Boer, J.
        Fairlamb, H. Gao, M. Huber, C.-C. Lin, E. Magnier, Y. Ramanjooloo, R.
        Wainscoat, R. Weryk.  1.8-m Ritchey-Chretien + CCD.
    V06 Catalina Sky Survey-Kuiper.  Observer H. Groeller.  Measurers E. J.
        Christensen, D. Fay, J. B. Fazekas, D. C. Fuls, A. R. Gibbs, A. D. Grauer,
        H. Groeller, J. K. Hogan, R. A. Kowalski, S. M. Larson, G. J. Leonard, D.
        Rankin, R. L. Seaman, A. Serrano, F. C. Shelly, K. W. Wierzchos.  1.55-m
        reflector + 1K CCD.
    
    Orbital elements:
    2022 QT33                                                Earth MOID = 0.1290 AU
    Epoch 2022 Aug. 9.0 TT = JDT 2459800.5                  Veres                   
    M 355.17463              (2000.0)            P               Q                  
    n   0.18592233     Peri.  189.35546     +0.94286180     +0.32380304             
    a   3.0402900      Node   151.36418     -0.29411994     +0.91958566             
    e   0.6261738      Incl.    9.42833     -0.15654103     +0.22251697             
    P   5.30           H   24.98          G   0.15           U   8                  
    Residuals in seconds of arc
    220829 F51  0.2+  0.2+    220830 807  0.4+  0.1-    220830 568  0.0   0.0
    220829 F51  0.1-  0.1-    220830 807  0.2+  0.2+    220830 568  0.0   0.0
    220829 F51  0.2-  0.1-    220830 V06  0.1-  0.3-    220901 F51  0.1+  0.1-
    220829 F51  0.3+  0.1-    220830 V06  0.1-  0.0     220901 F51  0.1-  0.1+
    220829 F51  0.1+  0.2+    220830 V06  0.0   0.2+
    220830 807  0.2-  0.2-    220830 568  0.0   0.0
    
    Ephemeris:
    2022 QT33                a,e,i = 3.04, 0.63, 9                   q = 1.1365
    Date    TT    R. A. (2000) Decl.     Delta      r    Elong.  Phase     V
    2022 08 02    19 58 26.3 +01 50 58   0.2098  1.2107   156.9    19.2    23.0
    ...
    2022 08 17    20 50 29.4 -05 55 24   0.1515  1.1593   164.7    13.4    22.0
    ...
    2022 08 25    21 38 01.6 -12 46 02   0.1341  1.1436   171.0     7.9    21.5
    ...
    2022 08 31    22 22 35.0 -18 15 29   0.1298  1.1377   170.0     8.8    21.4
    2022 09 01    22 30 28.9 -19 06 52   0.1299  1.1372   169.1     9.6    21.5
    2022 09 02    22 38 26.9 -19 56 25   0.1302  1.1368   168.1    10.5    21.5
    ...
    2022 09 08    23 25 57.8 -24 01 54   0.1365  1.1377   161.2    16.6    21.8
    ...
    2022 09 16    00 21 15.5 -26 52 52   0.1557  1.1469   153.4    23.1    22.3
    ...
    2022 10 01    01 25 07.7 -26 41 35   0.2142  1.1872   147.2    27.2    23.2
    
    M. P. C. Staff               (C) Copyright 2022 MPC           M.P.E.C. 2022-R14
    


    Read MPEC 2022-R13 Read MPEC 2022-R15


    MPEC number:

    Enter an MPEC number in one of the following forms:

    • 1997-B01 (the full form)
    • J97B01 (the packed version of the full form)
    • B01 (the abbreviated form)